Location: Santa Clara
(37.3540°N, 121.9540°W)
Time: 23:17:29
(UTC-07:00)

BlueWalker 3 - Pass Details

Date: 28 May 2024
Orbit: 480 x 493 km, 53.2° (Epoch: 23 June)

Event Time Altitude Azimuth Distance (km) Brightness Sun altitude
Exits shadow 04:44:48 - 179° (S) 1,942 4.6 -11.6°
Reaches altitude 10° 04:45:48 10° 170° (S) 1,643 4.3 -11.5°
Maximum altitude 04:48:20 18° 126° (SE) 1,245 4.1 -11.1°
Drops below altitude 10° 04:50:54 10° 83° (E) 1,653 5.6 -10.7°
Sets 04:53:34 0° 64° (ENE) 2,538 7.5 -10.3°
